TimeEST,TemperatureF,Dew PointF,Humidity,Sea Level PressureIn,VisibilityMPH,Wind Direction,Wind SpeedMPH,Gust SpeedMPH,PrecipitationIn,Events,Conditions,WindDirDegrees,DateUTC
12:56 AM,12.0,10.0,92,30.56,7.0,ENE,4.6,-,N/A,,Clear,60,2013-12-08 05:56:00
1:56 AM,15.1,12.0,88,30.54,7.0,East,6.9,-,N/A,,Clear,90,2013-12-08 06:56:00
2:56 AM,18.1,14.0,84,30.53,7.0,East,9.2,-,N/A,,Clear,80,2013-12-08 07:56:00
3:56 AM,19.0,14.0,81,30.48,7.0,East,16.1,-,N/A,,Clear,90,2013-12-08 08:56:00
4:56 AM,19.0,14.0,81,30.48,7.0,East,12.7,-,N/A,,Clear,80,2013-12-08 09:56:00
5:56 AM,20.1,15.1,81,30.46,8.0,ENE,12.7,-,N/A,,Partly Cloudy,70,2013-12-08 10:56:00
6:56 AM,21.0,15.1,78,30.43,8.0,ENE,13.8,-,N/A,,Clear,60,2013-12-08 11:56:00
7:56 AM,21.0,16.2,81,30.43,7.0,ENE,11.5,-,N/A,,Partly Cloudy,60,2013-12-08 12:56:00
8:56 AM,21.0,16.2,81,30.41,4.0,East,12.7,-,0.00,,Mostly Cloudy,80,2013-12-08 13:56:00
9:03 AM,21.2,15.8,80,30.35,2.5,ENE,13.8,-,N/A,Snow,Blowing Snow,70,2013-12-08 14:03:00
9:07 AM,21.2,17.6,86,30.35,1.8,ENE,12.7,-,0.00,Snow,Light Snow,70,2013-12-08 14:07:00
9:11 AM,21.2,17.6,86,30.35,1.2,ENE,15.0,-,0.00,Snow,Light Snow,60,2013-12-08 14:11:00
9:20 AM,21.2,17.6,86,30.34,1.5,ENE,16.1,-,0.00,Snow,Light Snow,60,2013-12-08 14:20:00
9:42 AM,21.2,17.6,86,30.32,2.5,ENE,16.1,-,0.00,Snow,Light Snow,70,2013-12-08 14:42:00
9:49 AM,21.2,17.6,86,30.34,3.0,ENE,13.8,-,0.00,Snow,Blowing Snow,70,2013-12-08 14:49:00
9:56 AM,22.1,18.1,85,30.39,4.0,ENE,16.1,-,0.00,Snow,Blowing Snow,70,2013-12-08 14:56:00
10:14 AM,21.2,17.6,86,30.35,6.0,ENE,13.8,-,N/A,,Overcast,70,2013-12-08 15:14:00
10:56 AM,23.0,20.1,89,30.38,2.0,ENE,13.8,-,0.00,Snow,Light Snow,70,2013-12-08 15:56:00
11:03 AM,23.0,19.4,86,30.32,1.8,ENE,12.7,-,0.00,Snow,Light Snow,70,2013-12-08 16:03:00
11:20 AM,23.0,19.4,86,30.30,2.0,ENE,13.8,-,0.00,Snow,Light Snow,70,2013-12-08 16:20:00
11:43 AM,24.8,19.4,80,30.29,2.5,East,13.8,-,0.00,Snow,Blowing Snow,80,2013-12-08 16:43:00
11:56 AM,24.1,21.0,88,30.33,1.5,East,15.0,-,0.00,Snow,Light Snow,80,2013-12-08 16:56:00
12:04 PM,24.8,21.2,86,30.28,1.2,ENE,13.8,-,0.00,Snow,Light Snow,70,2013-12-08 17:04:00
12:11 PM,24.8,21.2,86,30.27,1.8,East,12.7,-,0.00,Snow,Light Snow,80,2013-12-08 17:11:00
12:19 PM,24.8,21.2,86,30.26,2.0,East,15.0,-,0.00,Snow,Light Snow,80,2013-12-08 17:19:00
12:56 PM,25.2,22.1,88,30.30,2.0,ENE,13.8,-,0.00,,Overcast,70,2013-12-08 17:56:00
1:08 PM,24.8,21.2,86,30.23,2.5,ENE,12.7,-,0.00,,Overcast,70,2013-12-08 18:08:00
1:47 PM,24.8,23.0,93,30.21,3.0,East,12.7,-,0.00,,Overcast,80,2013-12-08 18:47:00
1:56 PM,25.2,23.0,91,30.26,3.0,East,12.7,-,0.00,,Overcast,80,2013-12-08 18:56:00
2:18 PM,26.6,23.0,86,30.18,1.8,East,12.7,-,0.00,Snow,Light Snow,80,2013-12-08 19:18:00
2:33 PM,26.6,24.8,93,30.17,2.0,East,12.7,-,0.00,,Overcast,90,2013-12-08 19:33:00
2:48 PM,26.6,24.8,93,30.16,2.5,East,13.8,-,0.00,,Overcast,90,2013-12-08 19:48:00
2:56 PM,26.1,24.1,92,30.19,3.0,East,13.8,-,0.00,,Overcast,90,2013-12-08 19:56:00
3:03 PM,26.6,24.8,93,30.14,2.5,East,12.7,-,N/A,,Overcast,80,2013-12-08 20:03:00
3:13 PM,26.6,24.8,93,30.14,3.0,East,13.8,-,N/A,,Overcast,90,2013-12-08 20:13:00
3:24 PM,26.6,24.8,93,30.13,2.5,East,12.7,-,N/A,,Overcast,90,2013-12-08 20:24:00
3:36 PM,26.6,24.8,93,30.13,3.0,East,13.8,-,N/A,,Overcast,90,2013-12-08 20:36:00
3:56 PM,26.1,25.2,96,30.18,3.0,East,10.4,-,N/A,,Overcast,80,2013-12-08 20:56:00
4:11 PM,26.6,24.8,93,30.13,1.8,East,10.4,-,0.00,,Overcast,80,2013-12-08 21:11:00
4:28 PM,26.6,24.8,93,30.12,1.5,East,10.4,-,0.00,,Overcast,90,2013-12-08 21:28:00
4:44 PM,26.6,24.8,93,30.11,1.0,East,12.7,-,0.00,,Overcast,100,2013-12-08 21:44:00
4:56 PM,26.1,26.1,100,30.16,1.0,East,10.4,-,0.00,Rain,Light Freezing Rain,100,2013-12-08 21:56:00
5:06 PM,26.6,26.6,100,30.10,0.8,ESE,13.8,-,0.00,Rain,Light Freezing Rain,110,2013-12-08 22:06:00
5:22 PM,26.6,26.6,100,30.09,1.0,East,15.0,-,0.00,Rain,Light Freezing Rain,100,2013-12-08 22:22:00
5:29 PM,26.6,26.6,100,30.09,1.5,East,13.8,-,0.00,Rain,Light Freezing Rain,100,2013-12-08 22:29:00
5:41 PM,26.6,26.6,100,30.08,2.0,ESE,15.0,-,0.00,Rain,Light Freezing Rain,110,2013-12-08 22:41:00
5:56 PM,27.1,26.1,96,30.13,2.0,East,12.7,-,0.00,Rain,Light Freezing Rain,100,2013-12-08 22:56:00
6:48 PM,26.6,26.6,100,30.07,1.8,East,11.5,-,0.00,Rain,Light Freezing Rain,100,2013-12-08 23:48:00
6:56 PM,27.1,26.1,96,30.11,1.5,East,10.4,-,0.00,Rain,Light Freezing Rain,100,2013-12-08 23:56:00
7:08 PM,26.6,26.6,100,30.07,1.5,ESE,11.5,-,0.00,Rain,Light Freezing Rain,120,2013-12-09 00:08:00
7:31 PM,26.6,26.6,100,30.06,2.0,ESE,9.2,-,0.00,Rain,Light Freezing Rain,120,2013-12-09 00:31:00
7:42 PM,26.6,26.6,100,30.06,1.8,SE,10.4,-,0.00,Rain,Light Freezing Rain,130,2013-12-09 00:42:00
7:56 PM,27.1,27.1,100,30.09,1.0,SE,9.2,-,0.00,Rain,Light Freezing Rain,130,2013-12-09 00:56:00
8:06 PM,26.6,26.6,100,30.05,1.0,SE,11.5,-,0.00,,Overcast,140,2013-12-09 01:06:00
8:25 PM,28.4,28.4,100,30.04,1.2,SE,10.4,-,0.00,,Overcast,130,2013-12-09 01:25:00
8:34 PM,28.4,28.4,100,30.04,1.8,SE,9.2,-,0.00,,Overcast,130,2013-12-09 01:34:00
8:47 PM,28.4,28.4,100,30.03,2.0,SE,9.2,-,0.00,,Overcast,140,2013-12-09 01:47:00
8:56 PM,29.1,28.0,96,30.07,2.5,SE,9.2,-,0.00,,Overcast,140,2013-12-09 01:56:00
9:13 PM,28.4,28.4,100,30.03,4.0,SSE,9.2,-,N/A,,Overcast,150,2013-12-09 02:13:00
9:28 PM,28.4,28.4,100,30.03,2.0,SSE,10.4,-,N/A,,Overcast,150,2013-12-09 02:28:00
9:56 PM,29.1,29.1,100,30.06,1.8,SE,6.9,-,N/A,,Overcast,140,2013-12-09 02:56:00
10:20 PM,28.4,28.4,100,30.02,1.2,SSE,5.8,-,N/A,,Overcast,160,2013-12-09 03:20:00
10:33 PM,30.2,30.2,100,30.01,1.0,SSE,6.9,-,N/A,,Overcast,150,2013-12-09 03:33:00
10:42 PM,30.2,30.2,100,30.00,1.2,SSE,6.9,-,N/A,,Overcast,160,2013-12-09 03:42:00
10:56 PM,31.1,31.1,100,30.04,1.5,SSE,6.9,-,N/A,,Overcast,160,2013-12-09 03:56:00
11:14 PM,30.2,30.2,100,30.00,2.0,South,5.8,-,N/A,,Overcast,170,2013-12-09 04:14:00
11:21 PM,30.2,30.2,100,30.00,3.0,South,4.6,-,N/A,,Overcast,170,2013-12-09 04:21:00
11:30 PM,30.2,30.2,100,30.00,2.5,South,6.9,-,0.00,Rain,Light Freezing Rain,180,2013-12-09 04:30:00
11:42 PM,32.0,32.0,100,30.01,1.5,South,6.9,-,0.00,Rain,Light Freezing Rain,180,2013-12-09 04:42:00
11:56 PM,32.0,32.0,100,30.04,1.8,South,5.8,-,0.00,Rain,Light Freezing Rain,190,2013-12-09 04:56:00